Wetbulb
57.26 59.41 59.75 62.49 67.99 69.69 70.06 71.78 72.17 70.97 68.78 70.18 69.85 69.13 66.80 64.28 61.72 60.53 55.74 53.32 51.66 49.72 49.30 46.99 45.42 47.69 46.22 45.51 46.75 47.26 46.20 46.16 45.37 47.18 46.86 47.15 47.33 46.48 46.81 47.44 47.49 46.97 46.88
56.30 58.38 60.06 61.48 64.82 68.00 68.68 71.06 71.61 70.10 69.37 69.94 67.48 65.12 64.26 60.31 58.65 55.03 52.78 50.79 49.19 48.07 46.40 43.96 44.14 44.95 46.33 46.14 45.90 46.94 45.73 45.48 45.68 43.75 45.07 44.39 44.85 46.34 46.03 46.04 45.63 46.39 46.47
55.50 57.45 59.86 61.43 63.43 67.76 67.81 70.56 71.54 70.89 68.52 65.53 63.67 62.04 60.02 58.21 56.80 53.47 49.96 47.58 45.27 46.41 44.07 43.54 44.27 45.50 45.42 44.06 45.62 45.45 44.53 44.85 44.46 43.28 42.58 43.59 44.37 45.25 44.44 45.76 45.13 45.64 45.64
54.62 56.33 58.38 60.31 63.11 66.97 69.19 69.17 69.46 69.39 65.17 62.28 60.45 59.02 57.72 55.50 52.07 50.88 48.41 44.20 43.45 43.47 44.19 44.76 45.04 45.80 44.80 44.11 44.12 44.23 44.28 43.65 42.97 42.76 42.36 42.42 43.24 44.50 43.85 42.23 41.85 43.58 43.02
53.57 54.85 57.13 60.26 62.85 66.99 68.91 68.15 68.56 65.01 60.65 58.08 55.78 54.23 53.32 50.99 48.70 48.83 46.30 43.55 42.77 42.86 44.20 44.20 45.11 45.66 45.01 43.87 43.18 43.00 43.24 42.28 41.36 41.57 41.55 42.24 41.76 41.24 40.44 41.58 40.93 41.73 43.51
52.86 54.75 57.81 60.01 62.00 66.66 67.36 67.03 63.40 58.60 55.42 52.76 50.34 49.49 49.18 47.24 45.53 46.05 44.91 43.31 43.60 44.18 45.32 46.30 46.33 46.00 45.54 44.88 44.13 42.89 42.23 41.30 41.20 40.53 40.75 40.11 40.82 40.81 41.41 40.71 40.38 39.21 38.46
51.15 54.65 57.12 59.76 61.19 64.32 66.16 60.07 57.00 54.31 52.34 50.52 48.25 47.51 46.85 45.46 44.08 45.14 45.47 43.85 42.98 43.01 43.18 43.68 43.02 43.90 43.84 42.97 41.69 41.23 40.99 40.35 39.86 42.21 40.68 40.04 40.12 40.71 41.09 39.93 40.02 39.52 39.37
50.75 54.43 57.41 60.08 61.61 64.79 59.02 55.84 53.59 52.53 49.12 47.10 46.18 45.37 43.93 43.28 43.07 42.80 42.70 41.01 40.69 41.76 42.08 42.09 41.86 41.19 41.71 40.95 40.06 40.51 40.90 41.85 41.93 41.82 41.93 40.96 40.50 41.08 40.92 40.60 40.70 40.84 43.02
50.59 55.02 58.67 60.66 62.31 63.09 55.72 53.35 51.11 48.20 47.13 46.52 43.59 42.74 42.05 40.99 40.51 40.00 39.60 40.09 39.51 40.67 41.27 42.15 41.19 39.52 38.31 38.91 40.36 39.81 40.44 40.72 39.64 38.28 37.55 37.17 37.41 37.68 38.34 40.44 38.66 38.82 38.82
52.41 56.24 60.12 62.00 61.21 55.72 52.88 50.63 50.00 47.76 45.76 45.68 42.89 41.91 41.46 39.04 39.57 39.12 39.26 39.56 39.53 40.20 40.74 39.55 38.75 38.14 36.92 37.96 40.66 41.23 39.22 39.37 40.34 41.00 41.14 41.11 41.28 41.23 39.51 40.96 39.81 38.01 38.72
55.60 57.38 60.28 58.98 55.58 53.10 51.53 49.75 46.88 45.29 43.99 41.47 38.90 39.26 39.56 39.02 38.24 38.84 39.48 40.37 39.83 38.98 38.11 37.22 37.31 36.86 36.61 36.56 38.28 40.10 37.17 39.84 39.56 40.07 40.32 40.26 40.79 40.89 40.82 41.11 41.12 39.89 38.36
56.30 57.39 54.90 53.36 51.78 50.70 47.94 45.10 42.23 40.75 38.98 38.44 36.95 36.13 37.49 38.10 38.92 38.37 38.72 39.08 40.33 39.46 37.86 37.30 36.99 36.27 35.90 36.28 36.88 34.67 35.14 38.80 39.87 39.40 39.02 38.40 38.52 38.91 39.84 40.62 41.40 41.72 42.16
54.34 51.30 50.02 49.25 48.39 46.47 43.59 41.15 39.16 38.33 36.48 36.26 36.00 35.12 36.01 38.37 38.57 38.25 37.82 37.99 38.89 38.65 38.13 36.33 35.62 35.46 36.07 35.90 35.03 36.11 37.46 38.81 38.49 38.18 37.58 37.66 38.61 39.74 40.84 40.60 41.72 42.73 43.94
47.42 46.58 46.35 45.14 44.29 43.16 42.34 40.21 37.82 35.03 35.66 35.39 35.33 35.80 36.64 37.08 37.57 38.57 38.72 38.63 38.12 37.54 36.92 37.00 35.72 35.55 35.48 36.95 38.71 38.84 38.82 38.26 37.85 37.51 37.54 38.64 39.74 39.43 38.90 39.32 38.68 40.26 40.94
44.10 43.05 42.06 41.71 40.68 39.47 39.05 38.48 37.12 36.89 37.51 36.96 37.80 37.54 36.38 36.06 37.77 38.22 37.89 37.87 37.55 36.42 37.38 37.88 37.55 37.64 37.56 38.03 38.26 38.37 38.88 38.57 37.57 37.92 37.70 37.76 37.82 38.06 38.05 39.16 38.93 39.87 39.36
40.76 40.50 40.35 39.33 37.66 36.60 35.55 34.65 36.75 37.20 37.40 36.91 37.44 39.18 39.41 37.58 36.51 35.74 35.02 34.13 34.19 35.02 37.22 36.37 36.15 36.69 37.04 37.32 37.62 37.68 37.84 36.93 37.37 37.65 37.66 37.44 36.95 37.22 37.18 38.16 38.78 38.96 38.67
39.96 39.54 39.13 38.07 37.56 37.02 36.63 35.40 32.73 35.63 36.84 36.40 36.31 36.58 36.59 35.26 34.78 34.41 33.91 33.44 33.32 35.44 36.33 35.77 35.48 36.14 36.58 37.05 37.19 37.09 36.51 36.83 37.53 37.27 37.09 36.85 36.91 37.40 37.37 36.98 37.03 37.85 38.23
40.97 40.38 40.01 39.15 38.60 37.78 37.10 36.39 36.41 35.41 34.15 34.54 35.71 35.48 34.72 34.37 34.02 33.52 33.55 35.33 35.74 35.78 35.94 35.94 35.70 35.51 35.83 36.51 36.95 36.78 36.63 37.06 37.01 36.80 36.64 36.71 36.73 36.81 36.46 36.36 36.58 36.59 37.47
40.88 40.51 39.96 39.06 38.60 38.38 38.85 38.51 37.88 36.87 35.73 34.85 35.49 35.36 35.52 34.41 34.37 34.48 35.15 36.27 35.11 34.98 35.86 35.30 35.65 35.68 35.92 36.40 36.61 36.75 36.40 35.60 36.15 36.34 36.27 36.11 36.45 36.71 36.30 36.70 36.56 34.06 35.23
38.34 37.75 37.92 37.91 38.83 39.19 39.06 38.03 37.75 37.75 37.90 38.10 36.90 36.23 37.66 37.94 37.09 36.26 36.51 36.40 36.04 35.59 35.55 35.50 35.69 35.88 35.73 36.17 36.92 37.12 36.82 36.37 36.10 35.99 35.85 35.95 36.64 36.87 36.11 36.27 36.55 36.40 37.47
38.51 39.19 38.27 40.04 39.71 39.64 39.27 38.90 39.21 38.98 38.45 38.61 38.02 37.31 33.12 37.93 36.45 36.42 36.65 36.50 36.35 36.19 35.84 35.73 35.80 36.02 36.32 36.72 37.18 36.87 36.45 36.14 35.92 35.96 35.76 35.80 36.17 35.83 36.73 36.84 36.90 37.12 37.52
39.98 40.35 40.32 39.78 39.78 39.36 39.42 39.90 39.38 38.98 38.18 36.68 36.52 35.83 32.43 38.73 37.64 37.12 37.11 37.23 37.40 37.50 37.32 36.45 35.75 35.79 36.03 36.20 36.69 36.62 35.89 35.27 35.38 35.64 35.69 35.72 35.92 36.14 36.44 36.51 36.56 36.86 37.21
40.80 40.55 40.25 39.67 39.36 38.02 39.94 40.07 39.54 38.76 38.16 38.19 38.52 38.64 38.76 38.30 37.88 37.66 37.73 38.24 38.36 38.21 38.20 37.32 36.34 35.54 36.27 36.54 36.86 36.61 35.47 34.90 35.15 35.37 35.02 35.40 35.46 35.24 36.38 36.07 36.03 35.93 35.89
41.11 41.49 41.16 41.27 40.79 40.55 40.16 39.81 39.18 37.15 39.02 39.16 39.14 39.07 38.87 38.70 38.59 38.71 38.82 39.01 38.88 38.67 38.36 37.35 36.33 35.99 36.20 36.50 36.78 36.17 35.08 34.95 35.85 35.55 35.40 35.21 35.08 35.50 36.00 36.01 35.93 36.01 36.19
41.71 41.53 41.22 41.54 40.75 40.07 39.67 39.85 39.84 40.00 39.73 39.67 39.63 39.67 39.76 39.67 39.33 39.38 39.66 39.56 39.32 38.66 38.16 37.69 36.70 35.97 35.88 35.77 35.30 34.58 29.70 29.30 31.95 29.62 35.81 35.54 34.94 35.40 35.56 35.80 35.55 36.01 35.88
41.95 41.44 41.46 41.50 41.20 40.95 40.59 40.31 40.12 40.19 39.81 39.97 40.25 40.38 40.59 40.16 40.13 40.07 40.02 39.69 39.20 38.76 38.32 37.77 36.52 35.90 35.59 34.88 32.75 29.50 29.50 29.42 30.78 29.16 34.70 35.58 34.76 34.76 34.65 35.05 35.14 35.40 35.23
MSLP
1001.53 1001.33 1000.99 1000.41 1000.25 1000.42 1000.53 1000.60 1001.14 1002.00 1002.24 1002.72 1003.17 1004.80 1006.17 1007.28 1008.51 1010.02 1011.05 1011.74 1012.72 1014.09 1014.44 1015.54 1016.51 1017.08 1016.62 1016.71 1016.83 1016.69 1016.91 1017.17 1017.12 1017.29 1017.89 1017.73 1017.68 1017.35 1016.71 1016.26 1015.57 1014.99 1014.15
1001.29 1001.05 1000.68 1000.16 999.88 1000.04 1000.09 1000.13 1000.45 1001.42 1002.47 1002.82 1004.00 1004.98 1006.43 1007.70 1008.92 1010.46 1011.76 1012.59 1013.31 1014.59 1015.93 1016.02 1017.10 1018.17 1016.88 1017.61 1017.37 1017.52 1017.95 1018.34 1018.20 1017.84 1017.82 1017.47 1017.57 1017.46 1017.04 1016.50 1015.71 1014.85 1014.15
1001.20 1000.78 1000.49 999.97 999.58 999.48 999.58 999.74 1000.15 1000.66 1001.58 1002.96 1004.10 1005.27 1006.68 1007.67 1009.41 1010.80 1012.03 1014.53 1013.93 1015.24 1017.34 1016.26 1018.77 1018.19 1017.32 1018.09 1017.92 1017.94 1018.42 1018.59 1018.77 1018.24 1017.63 1017.66 1017.55 1017.32 1016.62 1016.03 1015.63 1014.77 1013.88
1000.74 1000.33 1000.03 999.67 999.06 998.78 998.90 999.28 999.86 1000.46 1001.47 1002.52 1003.98 1006.02 1007.00 1008.27 1010.31 1011.44 1012.39 1014.30 1015.12 1015.63 1017.36 1018.15 1019.39 1018.22 1018.15 1018.07 1018.68 1018.74 1018.97 1019.12 1019.16 1018.41 1017.91 1017.82 1017.58 1017.34 1016.97 1016.40 1015.49 1014.43 1014.10
999.91 999.66 999.58 999.35 998.76 998.55 998.64 998.93 999.79 1000.94 1001.95 1003.35 1004.76 1006.58 1008.03 1009.01 1010.80 1012.11 1013.45 1014.97 1015.31 1015.80 1017.43 1019.58 1018.99 1019.14 1017.98 1018.87 1018.87 1019.35 1019.50 1019.68 1019.17 1018.23 1018.30 1017.95 1017.72 1017.76 1017.26 1016.66 1015.86 1014.93 1013.57
999.09 998.76 998.85 998.79 998.32 997.93 998.07 998.91 1000.38 1001.76 1002.76 1003.92 1005.35 1006.65 1008.73 1010.21 1011.35 1012.17 1013.18 1015.10 1015.92 1017.08 1018.16 1019.20 1019.25 1018.76 1018.91 1019.48 1019.21 1019.76 1020.43 1020.35 1019.79 1019.16 1018.88 1018.92 1018.62 1018.59 1017.80 1017.18 1016.16 1015.31 1013.42
998.59 998.16 997.98 997.77 997.57 997.20 997.60 999.49 1000.96 1002.60 1003.60 1004.70 1006.25 1007.74 1009.56 1010.85 1011.46 1012.47 1014.12 1014.66 1016.67 1017.45 1019.32 1018.84 1019.03 1019.26 1019.64 1019.86 1019.93 1020.71 1021.09 1020.75 1020.42 1019.94 1019.55 1019.92 1019.32 1018.99 1018.38 1017.77 1016.71 1016.11 1014.99
997.53 997.16 997.12 996.86 996.75 997.09 998.49 999.98 1001.73 1003.21 1004.43 1005.53 1007.09 1008.64 1009.88 1011.65 1012.13 1013.55 1014.58 1015.45 1016.49 1018.48 1019.18 1019.51 1019.66 1020.18 1020.18 1020.28 1020.57 1020.93 1020.98 1020.98 1020.26 1020.39 1020.72 1020.62 1020.16 1019.58 1019.01 1018.46 1017.22 1016.23 1014.65
996.43 996.29 996.03 996.17 996.10 996.46 998.94 1000.42 1002.14 1003.79 1005.27 1006.57 1007.51 1009.08 1010.26 1012.30 1013.27 1014.41 1015.35 1016.70 1017.06 1018.96 1019.62 1019.97 1020.34 1020.49 1020.88 1020.78 1020.92 1021.15 1020.93 1020.45 1020.70 1021.25 1021.36 1021.01 1020.65 1020.22 1020.04 1018.30 1017.02 1015.84 1014.59
995.91 995.62 995.26 995.34 996.09 997.55 999.16 1001.07 1002.58 1004.02 1005.79 1007.60 1008.73 1009.84 1011.35 1012.90 1014.60 1014.88 1014.97 1015.54 1017.89 1019.16 1020.18 1020.57 1021.08 1021.47 1021.53 1021.53 1021.39 1021.09 1020.64 1020.96 1020.90 1020.54 1019.99 1019.91 1019.67 1019.15 1019.48 1018.59 1017.65 1016.64 1015.58
994.87 995.08 995.03 995.79 996.89 998.21 1000.06 1001.97 1003.09 1005.74 1006.38 1008.37 1009.07 1011.80 1013.24 1014.09 1015.38 1015.22 1015.50 1016.41 1018.05 1019.40 1020.28 1021.42 1022.03 1022.16 1022.22 1022.35 1021.83 1021.72 1021.92 1021.82 1021.23 1020.38 1019.89 1019.78 1019.20 1018.98 1018.78 1018.39 1017.73 1016.88 1016.41
994.03 994.72 995.67 996.88 998.28 999.83 1001.25 1003.96 1005.11 1007.03 1007.96 1009.36 1010.34 1013.21 1014.60 1015.24 1015.67 1015.46 1017.47 1017.71 1018.78 1019.65 1020.91 1021.89 1022.67 1022.84 1023.08 1022.51 1022.59 1023.25 1022.63 1021.74 1020.86 1020.62 1019.97 1019.95 1019.47 1019.21 1018.99 1018.51 1017.75 1017.51 1017.53
993.80 995.74 996.94 998.28 999.78 1001.57 1002.56 1004.69 1006.85 1008.35 1008.75 1010.21 1011.19 1012.85 1014.62 1016.07 1015.95 1017.84 1018.50 1019.09 1019.98 1020.87 1021.53 1022.34 1023.11 1023.23 1022.81 1023.16 1023.57 1023.31 1022.39 1021.78 1021.43 1020.66 1020.66 1020.72 1020.38 1019.80 1019.22 1018.41 1017.70 1017.37 1016.87
994.71 996.71 998.11 999.52 1001.63 1003.69 1004.99 1006.05 1007.37 1008.79 1010.67 1009.85 1011.63 1012.46 1013.59 1016.06 1017.44 1018.52 1019.34 1020.24 1021.09 1021.49 1022.11 1022.73 1023.22 1023.30 1023.37 1023.28 1023.29 1023.08 1022.93 1022.79 1022.11 1021.69 1021.69 1021.54 1020.59 1019.62 1019.07 1018.54 1017.97 1017.44 1016.16
996.38 998.12 999.79 1001.25 1002.75 1005.02 1006.93 1007.79 1008.63 1010.63 1011.71 1011.43 1011.73 1011.98 1013.61 1015.95 1017.68 1018.48 1019.46 1020.44 1021.22 1021.90 1022.17 1022.47 1022.74 1022.99 1023.28 1023.24 1023.33 1023.64 1023.17 1022.87 1022.67 1022.55 1022.60 1021.57 1020.62 1019.89 1019.47 1019.47 1018.90 1017.78 1016.84
998.22 999.80 1001.27 1002.79 1004.59 1006.19 1007.57 1009.68 1011.32 1012.15 1013.35 1013.02 1014.20 1013.96 1015.71 1016.80 1018.02 1019.33 1020.29 1021.06 1022.17 1022.27 1022.04 1022.36 1023.09 1023.37 1023.05 1023.42 1023.55 1023.72 1023.63 1023.55 1023.38 1023.51 1023.01 1022.02 1021.02 1020.59 1020.18 1019.91 1019.45 1018.40 1018.01
999.95 1001.47 1003.11 1004.52 1006.07 1006.95 1008.56 1009.43 1012.09 1015.27 1015.53 1016.16 1016.33 1016.65 1017.49 1018.45 1019.33 1020.24 1021.25 1022.10 1022.53 1022.47 1022.44 1022.91 1023.36 1023.62 1023.53 1024.04 1023.97 1024.32 1024.05 1024.22 1024.13 1023.74 1023.12 1022.57 1022.04 1021.41 1020.84 1020.41 1019.58 1019.21 1018.56
1002.07 1003.14 1004.06 1005.71 1007.31 1008.66 1009.80 1011.80 1013.35 1014.61 1016.18 1017.65 1018.83 1018.92 1019.28 1019.94 1020.82 1021.50 1021.92 1022.17 1022.85 1023.29 1023.07 1023.06 1023.76 1024.53 1024.37 1024.88 1024.70 1024.90 1024.88 1024.88 1024.51 1024.03 1023.54 1023.46 1023.12 1022.43 1021.72 1020.77 1020.23 1019.98 1019.59
1003.95 1004.97 1006.12 1007.65 1008.86 1010.03 1011.42 1012.67 1013.95 1015.37 1016.52 1017.85 1019.48 1020.35 1021.09 1021.44 1021.76 1022.23 1022.18 1022.73 1023.09 1023.37 1024.01 1024.14 1025.01 1025.28 1025.36 1025.19 1025.49 1025.72 1025.83 1025.70 1025.05 1024.42 1024.42 1024.32 1023.94 1023.03 1022.31 1021.74 1021.21 1020.53 1020.26
1006.08 1006.91 1007.90 1009.07 1010.22 1011.18 1012.32 1013.55 1015.02 1016.18 1017.38 1018.50 1019.70 1020.58 1021.25 1021.55 1022.06 1022.86 1023.14 1023.53 1024.12 1024.28 1024.99 1025.45 1025.79 1025.82 1025.55 1025.82 1026.16 1026.10 1025.80 1025.69 1025.40 1025.60 1025.20 1024.95 1024.48 1023.82 1023.02 1022.57 1021.86 1021.10 1020.73
1008.27 1009.23 1009.80 1010.56 1011.58 1012.59 1013.80 1014.96 1016.03 1016.99 1017.95 1019.05 1019.97 1020.89 1021.48 1021.98 1022.46 1023.18 1023.98 1024.37 1024.81 1025.62 1026.08 1026.01 1025.84 1025.93 1026.24 1026.45 1026.76 1026.14 1026.00 1026.29 1026.30 1025.96 1025.64 1025.63 1025.32 1024.44 1023.98 1023.38 1022.46 1022.04 1021.51
1009.59 1010.40 1011.20 1011.91 1013.02 1014.08 1015.02 1016.00 1016.93 1017.73 1018.60 1019.70 1020.94 1022.02 1022.32 1022.54 1023.38 1023.96 1024.66 1025.36 1026.19 1026.45 1026.44 1026.39 1026.56 1027.03 1027.02 1027.36 1027.23 1026.66 1026.76 1026.79 1026.69 1026.54 1025.98 1025.95 1025.75 1024.96 1024.50 1023.83 1023.08 1022.75 1022.18
1010.90 1011.61 1012.58 1013.63 1014.55 1015.33 1016.09 1016.84 1017.65 1018.70 1019.66 1020.75 1021.34 1022.08 1022.88 1023.64 1024.18 1025.12 1025.91 1026.44 1026.80 1026.71 1026.88 1027.21 1027.21 1027.61 1027.89 1028.14 1028.02 1027.99 1027.67 1027.62 1027.31 1027.21 1026.61 1026.33 1025.98 1025.46 1024.81 1024.41 1023.96 1023.57 1022.98
1012.23 1012.85 1013.53 1014.49 1015.39 1016.30 1017.15 1018.10 1019.09 1019.95 1020.73 1021.40 1022.20 1022.91 1023.62 1024.33 1025.07 1025.85 1026.39 1026.78 1026.74 1027.42 1027.66 1028.02 1027.93 1028.31 1028.59 1028.60 1028.75 1028.72 1028.59 1028.55 1027.97 1027.51 1027.23 1026.82 1026.32 1025.86 1025.39 1025.08 1024.78 1024.36 1023.66
1013.67 1014.33 1015.21 1015.96 1016.81 1017.80 1018.47 1019.26 1020.16 1020.83 1021.43 1022.11 1022.96 1023.84 1024.73 1025.38 1025.73 1026.05 1025.92 1026.86 1027.48 1027.43 1027.91 1028.30 1028.72 1029.06 1029.23 1029.39 1029.43 1029.42 1029.67 1029.49 1028.94 1028.56 1027.60 1027.25 1026.94 1026.56 1026.33 1025.93 1025.52 1024.83 1024.28
1015.35 1015.98 1016.65 1017.42 1018.11 1018.83 1019.45 1020.21 1021.06 1021.95 1022.44 1023.20 1023.91 1024.63 1025.26 1025.65 1025.75 1026.10 1026.81 1027.16 1027.43 1028.19 1028.28 1028.92 1029.57 1029.57 1029.68 1029.71 1030.13 1030.30 1030.09 1029.69 1029.20 1029.19 1028.40 1027.79 1027.53 1027.23 1027.33 1026.67 1026.12 1025.42 1024.84
Wind_Speed
15 12 11 12 15 16 16 15 15 15 11 16 15 15 15 15 14 12 11 13 15 12 12 11 11 4 6 6 5 6 6 4 2 1 3 5 7 9 10 10 10 11 10
15 14 13 11 12 14 15 17 15 14 17 15 12 13 15 16 15 16 13 9 15 12 11 13 10 2 10 6 7 9 7 5 3 4 3 5 6 10 12 12 11 10 12
13 14 12 11 12 14 16 17 16 15 14 15 15 14 15 16 16 15 17 11 15 16 8 14 3 6 9 6 7 6 4 3 2 4 4 4 6 8 11 10 11 13 11
12 13 13 13 13 16 16 16 15 14 13 16 16 15 15 18 17 18 20 18 14 17 11 9 3 7 8 9 7 6 4 3 3 4 4 5 6 10 8 11 11 11 12
12 11 12 15 14 16 16 14 13 14 16 19 20 17 17 18 13 19 18 14 18 17 11 6 7 10 15 8 6 6 4 3 3 5 6 6 8 10 12 11 11 11 12
13 12 12 13 14 15 15 14 14 16 18 20 20 21 18 14 28 28 23 16 17 14 11 10 11 14 15 15 16 15 9 5 7 6 6 8 10 10 11 12 12 12 12
14 14 14 12 13 15 14 15 18 18 19 20 20 21 20 20 32 31 27 18 14 13 8 10 10 9 11 11 14 12 12 11 10 7 8 7 8 11 12 13 14 13 12
15 14 14 11 12 11 18 19 19 17 19 19 20 20 21 18 30 28 26 18 16 11 11 10 11 9 8 9 8 8 7 7 9 7 6 6 7 10 11 11 12 14 11
14 14 13 10 13 16 19 20 19 18 17 17 20 23 23 20 28 28 20 15 17 13 11 11 10 10 8 7 9 8 7 9 9 7 5 3 5 5 11 9 10 11 12
12 13 10 9 18 21 22 20 17 19 20 16 18 20 26 22 23 25 21 16 15 12 12 13 16 12 12 9 8 6 10 10 8 7 8 7 7 7 6 9 10 11 11
12 10 8 14 19 21 19 17 20 18 20 20 23 19 19 19 16 21 22 16 13 11 11 10 9 16 14 11 10 11 8 5 4 7 7 7 8 9 8 9 10 10 10
13 10 16 18 15 16 23 18 21 19 20 22 25 17 14 15 20 21 16 19 17 12 12 10 11 15 12 14 13 8 5 2 7 7 8 9 9 10 10 11 11 11 8
15 21 20 21 19 20 24 22 18 13 19 18 18 18 16 12 15 24 22 21 18 13 11 16 16 11 14 15 13 7 7 9 8 8 10 9 9 9 10 12 11 12 9
26 24 22 23 21 20 16 16 17 13 11 17 17 18 17 15 13 13 13 15 20 16 18 11 14 15 13 9 6 9 9 8 9 10 9 8 8 10 11 11 10 11 10
25 24 23 19 21 19 16 14 16 13 8 12 14 17 19 16 13 16 13 11 11 12 12 10 9 9 8 8 10 8 8 9 10 9 8 9 10 11 12 12 11 11 11
23 19 19 18 17 18 19 20 30 26 18 19 14 14 13 24 25 23 22 20 14 10 11 11 10 8 10 9 8 8 9 11 9 8 8 10 11 12 12 11 12 13 13
24 23 20 21 17 19 19 20 21 19 26 24 25 25 25 26 27 25 22 16 11 10 11 10 10 9 9 8 7 8 9 8 7 8 9 11 11 10 11 12 13 14 12
24 31 20 19 18 17 18 19 16 16 16 15 20 21 27 27 25 22 20 16 13 10 10 11 11 8 8 7 8 8 8 7 8 9 10 11 10 10 11 13 13 14 14
20 18 20 18 17 20 16 16 16 16 16 15 15 18 20 21 19 16 13 11 11 11 10 10 8 7 7 8 7 7 7 7 8 9 9 9 10 10 11 12 13 14 13
21 32 24 17 16 17 16 17 16 16 15 14 13 14 13 14 12 11 11 12 11 10 9 8 8 8 9 8 7 6 7 8 9 8 9 9 9 10 11 12 13 13 13
15 15 21 17 16 16 16 16 15 14 14 13 14 11 11 13 12 12 11 10 10 9 8 8 9 9 8 7 6 7 9 8 8 8 9 9 9 9 11 11 12 12 12
15 15 15 16 15 15 15 14 14 15 15 14 14 12 10 12 12 12 12 10 9 8 8 9 9 8 8 7 7 8 8 9 9 9 9 9 8 9 10 11 12 12 12
15 17 16 15 15 17 15 14 14 15 16 15 14 13 12 11 12 11 10 9 9 9 9 9 8 8 7 6 7 7 9 8 8 9 9 9 8 10 10 11 12 12 12
16 17 17 15 15 15 15 15 15 15 15 14 13 12 12 11 12 12 10 9 10 9 9 9 9 9 7 7 7 8 8 8 8 8 10 9 9 10 9 10 11 13 12
16 16 16 15 15 15 16 15 14 14 14 13 13 12 11 11 11 11 11 10 9 9 10 8 7 8 10 12 11 12 9 8 11 9 8 10 10 11 10 9 12 11 14
16 16 15 14 14 14 14 13 13 13 13 13 12 12 11 11 10 10 9 9 9 8 9 7 8 10 9 10 12 9 8 10 11 10 9 8 9 8 8 10 14 10 13
Wind_Direction
296 295 274 257 240 236 221 211 203 191 175 194 165 172 170 151 140 133 116 118 113 109 95 96 79 60 76 73 74 64 56 24 331 85 308 334 320 338 340 338 332 326 330
290 292 287 276 255 239 226 216 202 187 176 181 170 163 164 143 129 124 106 127 111 101 108 99 91 167 90 75 74 67 59 42 334 337 348 345 327 338 341 336 336 330 328
280 283 284 277 261 234 229 217 202 191 172 161 151 149 149 131 129 120 110 95 102 100 72 81 134 113 91 92 80 81 78 58 10 337 354 341 337 347 339 341 337 332 331
273 270 274 274 258 235 218 214 197 176 146 132 132 142 134 121 117 118 113 111 94 94 81 73 165 103 120 101 90 85 68 29 10 1 5 349 349 355 341 344 336 342 332
269 262 264 270 264 242 214 197 183 148 133 126 122 121 121 115 117 119 110 108 111 105 95 153 117 121 94 95 94 72 45 11 6 20 13 359 5 351 348 339 334 334 336
269 260 253 262 267 231 206 174 134 128 126 122 120 119 122 116 119 116 115 112 112 99 133 134 118 101 97 95 88 72 51 21 40 17 21 8 3 345 343 343 332 343 344
263 255 249 244 253 236 188 129 129 131 127 124 122 123 125 126 125 123 126 123 122 113 133 125 117 107 111 102 88 89 75 65 55 26 26 11 344 347 337 334 334 337 332
255 252 246 235 240 211 134 130 131 132 131 128 124 124 120 122 121 122 129 120 105 111 124 118 113 111 100 103 100 92 76 62 47 38 26 10 0 348 344 328 321 321 319
245 247 234 227 231 158 134 135 129 125 123 132 127 125 124 121 123 126 126 104 108 115 108 104 103 96 87 101 102 96 88 61 94 72 47 25 335 339 343 329 352 333 339
224 228 213 210 139 136 133 134 135 128 126 129 118 112 121 120 127 126 119 110 110 108 102 87 83 88 75 63 92 90 70 46 28 22 28 21 5 20 344 353 349 345 352
203 210 194 142 132 131 127 127 119 123 119 120 107 110 116 116 127 115 109 114 115 116 110 105 94 82 73 63 59 57 51 15 46 33 27 14 10 10 3 360 7 357 348
187 161 123 120 118 118 113 108 103 119 119 116 111 115 110 114 113 91 97 104 116 116 113 108 97 81 79 66 65 56 25 350 42 27 27 16 8 4 356 357 3 2 345
146 121 115 109 108 110 114 111 107 115 111 125 116 118 123 121 95 100 98 99 103 108 108 104 103 113 96 81 54 28 42 41 35 33 25 11 360 359 348 4 4 358 349
112 112 109 106 105 105 105 106 105 104 125 116 125 122 114 117 117 115 108 105 107 105 108 105 96 87 79 80 78 53 48 35 29 29 16 359 1 10 8 8 1 354 354
104 105 103 99 99 99 90 97 106 88 90 124 122 120 128 125 127 120 121 120 117 117 127 112 99 94 89 76 65 50 46 39 33 26 7 10 13 18 10 6 1 360 5
101 101 104 102 99 98 100 91 75 84 73 68 80 109 98 106 107 104 101 98 111 141 103 95 91 89 76 66 61 54 45 39 30 17 13 17 18 15 4 7 5 8 4
101 104 102 100 102 103 102 101 95 76 80 85 93 100 104 113 107 103 101 99 87 99 95 96 87 74 78 67 66 53 49 37 24 26 25 22 16 9 6 6 13 8 4
95 97 98 100 99 104 102 108 120 115 111 100 85 103 103 103 105 109 113 110 93 85 89 87 83 80 74 73 62 51 46 35 33 30 28 24 13 8 6 12 14 8 358
94 96 96 98 101 108 116 112 109 111 108 107 110 90 93 99 94 85 83 97 100 89 86 84 86 88 82 68 59 55 45 40 25 32 29 24 11 10 9 10 7 7 357
85 95 100 106 111 108 106 107 111 112 114 114 114 120 121 112 99 94 90 88 90 88 87 97 94 80 68 65 57 46 48 36 35 27 26 24 14 9 10 9 6 4 7
97 102 106 103 104 105 108 111 112 112 112 113 111 101 97 111 106 98 97 91 85 93 100 94 83 76 72 63 52 48 46 41 34 28 27 22 9 12 7 7 7 5 8
99 100 99 99 101 103 105 107 111 111 107 108 109 101 96 101 106 102 95 94 97 92 85 81 78 69 63 54 39 46 45 39 31 21 22 24 8 13 10 6 7 4 0
99 101 100 99 103 108 105 103 103 105 109 115 118 112 107 107 102 103 108 104 98 89 79 78 80 74 65 58 49 37 36 34 25 17 14 15 9 9 12 5 5 0 1
98 100 103 103 103 103 104 107 108 109 116 114 114 111 108 112 113 114 116 111 93 87 81 74 66 66 71 63 54 49 39 18 22 19 14 14 11 8 7 5 2 0 0
97 100 104 106 106 109 114 114 116 116 116 116 114 112 114 122 125 121 106 103 105 91 80 75 74 78 69 64 58 51 44 18 26 347 16 15 10 9 4 360 358 359 4
98 101 104 109 109 111 113 115 116 120 119 118 121 125 127 122 113 111 112 105 97 95 90 84 78 73 73 64 53 44 30 26 23 3 346 14 9 12 356 357 0 359 0